Regional Weather Roundup
Issued by NWS

Home | Current Version | Previous Version | Graphics & Text | Print | Product List | Glossary Off
Versions: 1 2 3 4 5 6 7 8 9 10 11 12 13 14 15 16 17 18 19 20 21 22 23 24 25 26 27 28 29 30 31 32 33 34 35 36 37 38 39 40 41 42 43 44 45 46 47 48 49 50

000
ASUS43 KMPX 060310
RWRMN
WEATHER ROUNDUP FOR MINNESOTA
NATIONAL WEATHER SERVICE TWIN CITIES/CHANHASSEN MN
1000 PM CDT SUN JUL 05 2015


NOTE: "FAIR" INDICATES FEW OR NO CLOUDS BELOW 12,000 FEET WITH NO
SIGNIFICANT WEATHER AND/OR OBSTRUCTIONS TO VISIBILITY. N/A MEANS
CURRENT SKY AND/OR WEATHER CONDITIONS ARE NOT AVAILABLE.

MNZ060>063-068>070-060400-
   Twin Cities Metro

CITY           SKY/WX    TMP DP  RH WIND       PRES   REMARKS
TWIN CITIES    MOCLDY    80  67  64 S13G20    29.80R
ST PAUL        CLEAR     78  68  71 S10       29.80S
CRYSTAL        CLEAR     82  68  62 S16G24    29.78R
BLAINE         CLEAR     81  70  69 S10G17    29.80R
LAKEVILLE      CLEAR     75  66  73 S9        29.80F
EDEN PRAIRIE   PTCLDY    80  69  69 S12       29.79R
SOUTH ST PAUL  CLEAR     79  66  65 S9        29.80S
LAKE ELMO      FAIR      77  68  73 S10G20    29.82S
$$
MNZ001>005-007-008-013>017-022>024-027-028-060400-
   Northwest Minnesota

CITY           SKY/WX    TMP DP  RH WIND       PRES   REMARKS
BEMIDJI        PTCLDY    67  65  94 NW6       29.83R
HALLOCK        CLOUDY    64  63  94 NW3       29.86S FOG
ROSEAU         MOCLDY    64  57  77 NW6       29.85R HAZE
WARROAD        MOCLDY    64  61  88 NW7       29.85R FOG
THIEF RVR FALL MOCLDY    66  63  88 N12       29.83F
CROOKSTON      CLOUDY    66  64  94 N12       29.84S FOG
FOSSTON        CLEAR     64  63  94 CALM      29.82F
DETROIT LAKES  PTCLDY    70  64  83 N9        29.85R
MOORHEAD       PTCLDY    72  66  83 N9        29.85R
PARK RAPIDS    PTCLDY    71  66  84 N6        29.82R
MAHNOMEN       FAIR      68  64  88 N9        29.82R
$$
MNZ006-009>011-018-025>026-060400-
   North Central Minnesota

CITY           SKY/WX    TMP DP  RH WIND       PRES   REMARKS
BAUDETTE       MOCLDY    67  61  81 NW10      29.82R HAZE
FLAG ISLAND    MOCLDY    68  61  77 NW13      29.83R HAZE
INTL FALLS     MOCLDY    66  61  84 NW9       29.80R
WASKISH        PTCLDY    68  63  83 N5        29.82R
BIG FORK       PTCLDY    64  63  94 CALM      29.82R FOG
LONGVILLE      CLOUDY    68  66  94 N3        29.81S
GRAND RAPIDS   MOCLDY    68  64  88 N5        29.80S
CRANE LAKE     MOCLDY    64  64 100 S1        29.81R
COOK           CLOUDY    66  64  94 CALM      29.80R
WALKER         FAIR      67  66  97 CALM      29.82R
$$
MNZ012-019>021-037-060400-
   Northeast Minnesota

CITY           SKY/WX    TMP DP  RH WIND       PRES   REMARKS
DULUTH         CLOUDY    76  68  76 SW14      29.79R THUNDER
ELY            CLOUDY    66  64  94 CALM      29.79S
HIBBING        CLOUDY    67  65  93 E5        29.79R
DULUTH HARBOR  CLOUDY    70  66  88 W6        29.77R
TWO HARBORS    CLOUDY    72  64  78 S1        29.76R
SILVER BAY     LGT RAIN  68  64  88 CALM      29.76R
GRAND MARAIS     N/A     54  51  90 NE3       29.76S
G MARAIS ARPRT LGT RAIN  68  61  77 S7        29.81F
$$
MNZ029>031-032-039>041-046>048-054>057-064-060400-
   West Central Minnesota

CITY           SKY/WX    TMP DP  RH WIND       PRES   REMARKS
FERGUS FALLS   PTCLDY    73  64  73 N9G16     29.80R
WHEATON        MOCLDY    72  66  83 N5        29.85R
MORRIS         TSTM      70  66  88 W13       29.81R
ALEXANDRIA     RAIN      69  67  93 NW6       29.84R
ELBOW LAKE     MOCLDY    74  69  83 N10       29.83R
WADENA         CLOUDY    72  66  83 N7        29.83R
GLENWOOD       CLOUDY    75  70  83 NW10      29.82R
APPLETON       TSTM      73  68  83 NW14G37   29.81R
BENSON         CLOUDY    73  68  83 NW15G23   29.77R
ORTONVILLE     CLOUDY    72  66  83 N13       29.81R
MADISON        CLOUDY    79  70  73 NW13      29.76R THUNDER
WILLMAR          N/A     82  72  69 CALM      29.78R
$$
MNZ033>034-036-042>043-049>051-058-059-060400-
   Central Minnesota

CITY           SKY/WX    TMP DP  RH WIND       PRES   REMARKS
ST CLOUD       CLOUDY    80  71  74 S7        29.79R
SAUK CENTRE    CLOUDY    76  72  87 NW10      29.81R
PAYNESVILLE    CLOUDY    78  70  77 SE6       29.80R
AITKIN         MOCLDY    81  70  69 S10G17    29.74R
PINE RIVER       N/A     68  68 100 NW6       29.85R
BRAINERD       TSTM      79  71  76 SW9       29.76R
STAPLES        LGT RAIN  72  70  94 W7        29.82R
LONG PRAIRIE   MOCLDY    70  64  83 W5        29.81R
LITTLE FALLS   LGT RAIN  79  70  73 S7        29.76S
LITCHFIELD     CLOUDY    82  73  74 S5        29.80R
BUFFALO        MOCLDY    80  68  67 S7        29.81R
MAPLE LAKE     MOCLDY    80  72  77 S3        29.81R
$$
MNZ037-044-045-052-053-060400-
   East Central Minnesota

CITY           SKY/WX    TMP DP  RH WIND       PRES   REMARKS
PRINCETON      MOCLDY    81  72  74 S7        29.79R
MORA           MOCLDY    79  68  69 S10G16    29.79R
CAMBRIDGE      CLEAR     82  68  61 S8        29.78R
RUSH CITY      MOCLDY    78  68  71 S10G16    29.80R
MOOSE LAKE     MOCLDY    75  70  83 S3        29.77R
HINCKLEY       LGT RAIN  77  72  83 S17G26    29.79R
CLOQUET        CLOUDY    73  66  78 S7        29.78S THUNDER
MCGREGOR       MOCLDY    79  70  73 S6        29.76R
$$
MNZ071>073-080-081-089-090-097-098-060400-
   Southwest Minnesota

CITY           SKY/WX    TMP DP  RH WIND       PRES   REMARKS
GRANITE FALLS  CLOUDY    81  71  72 SE8       29.78R
CANBY          CLOUDY    81  71  72 S3        29.79R
MARSHALL       CLOUDY    82  70  65 S12       29.78R
REDWOOD FALLS  CLOUDY    82  69  64 S10       29.77R
OLIVIA         CLOUDY    79  68  69 S7        29.78R
PIPESTONE      MOCLDY    79  72  78 S10G16    29.80R
WINDOM         PTCLDY    79  70  73 S7        29.81S
WORTHINGTON    CLOUDY    79  66  65 S12       29.81S
JACKSON        PTCLDY    79  70  73 S8        29.84R
TRACY          MOCLDY    81  71  70 S10       29.78R
SLAYTON        MOCLDY    78  71  79 S9        29.81R
$$
MNZ065>067-074>077-082>085-091>093-060400-
   South Central Minnesota

CITY           SKY/WX    TMP DP  RH WIND       PRES   REMARKS
MANKATO        PTCLDY    79  66  65 S12       29.81R
NEW ULM        PTCLDY    79  68  69 S12       29.80R
ST JAMES       PTCLDY    79  72  78 SE10      29.81S
FAIRMONT       CLEAR     77  66  69 S12       29.83R
GLENCOE        MOCLDY    81  71  71 S7G16     29.79R
FARIBAULT      CLEAR     77  66  69 S12       29.83S
OWATONNA       CLEAR     77  64  65 S12G20    29.84R
WASECA         CLEAR     77  68  73 SE9       29.85R
ALBERT LEA     CLEAR     77  66  69 S13       29.86R
$$
MNZ078>079-086>088-094>096-060400-
   Southeast Minnesota

CITY           SKY/WX    TMP DP  RH WIND       PRES   REMARKS
ROCHESTER      CLEAR     74  66  76 S13       29.88S
RED WING       CLEAR     79  66  65 S6        29.83R
STANTON        CLEAR     77  66  69 S10G16    29.81S
DODGE CENTER   CLEAR     73  66  78 S12       29.87R
WINONA         CLEAR     75  64  69 S6        29.86F
AUSTIN         CLEAR     75  66  73 S7        29.87R
PRESTON        CLEAR     72  65  79 S10       29.90S
$$
ABBREVIATIONS USED IN REMARKS
   TC - TEMPERATURES IN CELSIUS
  WCI - WIND CHILL INDEX
   HX - HEAT INDEX
  VSB - VISIBILITY
$$



USA.gov is the U.S. government's official web portal to all federal, state and local government web resources and services.